[TLELIST] Archives

 

Current TLEs

June 29th 2006 PDT

HST 1 20580U 90037B 06178.80763635 +.00000294 +00000-0 +10034-4 0 06606 2 20580 028.4689 340.6559 0003591 289.9122 070.1078 15.00056543686694 ISS (ZARYA) 1 25544U 98067A 06180.46775183 .00017812 00000-0 11185-3 0 1974 2 25544 051.6295 124.2329 0010533 019.8906 340.3034 15.75941118435100 CXO 1 25867U 99040B 06180.95833333 .00000000 00000-0 00000+0 0 9441 2 25867 059.8510 096.5654 5794794 290.7231 356.5454 00.37792062 1214 ____________________________________________________________________ These 2-Line ...Continue Reading

Current TLEs

June 28th 2006 PDT

HST 1 20580U 90037B 06177.80963520 .00000294 00000-0 99796-5 0 6412 2 20580 028.4688 347.1619 0003671 279.3085 080.7087 15.00056249686546 ISS (ZARYA) 1 25544U 98067A 06179.35056551 .00007835 00000-0 53559-4 0 1900 2 25544 051.6296 129.9821 0010386 016.5601 121.1982 15.75894925434921 CXO 1 25867U 99040B 06178.33333333 +.00000000 +00000-0 +00000-0 0 09435 2 25867 059.8577 096.5786 5789475 290.8435 359.1370 00.37783573001213 ____________________________________________________________________ These 2-Line ...Continue Reading

Current TLEs

June 27th 2006 PDT

HST 1 20580U 90037B 06177.80963520 .00000294 00000-0 99796-5 0 6412 2 20580 028.4688 347.1619 0003671 279.3085 080.7087 15.00056249686546 ISS (ZARYA) 1 25544U 98067A 06178.46215278 .00006961 00000-0 48096-4 0 1857 2 25544 051.6294 134.5585 0010311 013.6617 120.5432 15.75876604434782 CXO 1 25867U 99040B 06178.33333333 +.00000000 +00000-0 +00000-0 0 09435 2 25867 059.8577 096.5786 5789475 290.8435 359.1370 00.37783573001213 ____________________________________________________________________ These 2-Line ...Continue Reading

The lists will resume automatically from tomorrow at 01:45 UTC

June 26th 2006 PDT

The lists will resume automatically from tomorrow at 01:45 UTC ____________________________________________________________________ These 2-Line Elements (TLEs) are direct from DoD/ USSTRATCOM/ US Space Command with permission. Updates are provided automatically daily. By receiving this email, you agree not to transfer any data or information received under this agreement, including the analysis of tracking data, to any other entity without the express approval of the Aus-City Forum Admins and/ or DoD/ USSTRATCO ...Continue Reading

List Issues and Problems

June 15th 2006 PDT

Due to a server migration, there are server issues with the Aus-City Lists. The server owners are working on the problems and they have given no ETA at this time. We will keep you updated when able. ____________________________________________________________________ These 2-Line Elements (TLEs) are direct from DoD/ USSTRATCOM/ US Space Command with permission. Updates are provided automatically daily. By receiving this email, you agree not to transfer any data or information received under this agreement, includ ...Continue Reading

Current TLEs

June 9th 2006 PDT

HST 1 20580U 90037B 06160.17826303 .00000431 00000-0 20788-4 0 6294 2 20580 028.4665 102.0906 0003993 101.1487 258.9550 15.00048019683898 ISS (ZARYA) 1 25544U 98067A 06160.44840816 .00015891 00000-0 10358-3 0 825 2 25544 051.6325 227.3177 0009501 313.6941 164.0530 15.76046038431945 CXO 1 25867U 99040B 06159.83333333 .00000000 00000-0 00000+0 0 9359 2 25867 059.7040 096.7745 5787849 291.4203 000.4068 00.37797042 1213 ____________________________________________________________________ These 2-Line ...Continue Reading

Current TLEs

June 8th 2006 PDT

HST 1 20580U 90037B 06158.98065552 +.00000406 +00000-0 +18821-4 0 06322 2 20580 028.4664 109.8960 0004002 088.6048 271.5000 15.00047201683710 ISS (ZARYA) 1 25544U 98067A 06159.62722977 .00015872 00000-0 10361-3 0 788 2 25544 051.6325 231.5492 0009214 309.4096 186.0426 15.76016798431811 CXO 1 25867U 99040B 06159.83333333 .00000000 00000-0 00000+0 0 9359 2 25867 059.7040 096.7745 5787849 291.4203 000.4068 00.37797042 1213 ____________________________________________________________________ These 2-Line ...Continue Reading

Current TLEs

June 8th 2006 PDT

HST 1 20580U 90037B 06158.71452036 .00000403 00000-0 18542-4 0 6282 2 20580 028.4665 111.6303 0004024 085.8174 274.2873 15.00047049683679 ISS (ZARYA) 1 25544U 98067A 06159.51049769 .00015586 00000-0 10184-3 0 760 2 25544 051.6328 232.1511 0009250 308.8326 243.8707 15.76011813431796 CXO 1 25867U 99040B 06159.83333333 .00000000 00000-0 00000+0 0 9359 2 25867 059.7040 096.7745 5787849 291.4203 000.4068 00.37797042 1213 ____________________________________________________________________ These 2-Line ...Continue Reading

Current TLEs

June 7th 2006 PDT

HST 1 20580U 90037B 06158.44838532 .00000410 00000-0 19131-4 0 6262 2 20580 028.4665 113.3651 0004102 082.6737 277.4317 15.00047012683635 ISS (ZARYA) 1 25544U 98067A 06158.48320067 .00010493 00000-0 70104-4 0 691 2 25544 051.6322 237.4407 0009124 303.4552 176.8421 15.75966505431631 CXO 1 25867U 99040B 06159.83333333 .00000000 00000-0 00000+0 0 9359 2 25867 059.7040 096.7745 5787849 291.4203 000.4068 00.37797042 1213 ____________________________________________________________________ These 2-Line ...Continue Reading

Current TLEs

June 6th 2006 PDT

HST 1 20580U 90037B 06157.25077612 .00000417 00000-0 19684-4 0 6253 2 20580 028.4668 121.1788 0003823 073.0137 287.0850 15.00046583683454 ISS (ZARYA) 1 25544U 98067A 06157.32848765 .00012122 00000-0 80397-4 0 633 2 25544 051.6330 243.3884 0008973 298.0383 106.6572 15.75946674431450 CXO 1 25867U 99040B 06157.16666667 .00000000 00000-0 00000+0 0 9341 2 25867 059.6693 096.8320 5790303 291.4676 357.3165 00.37801278 1218 ____________________________________________________________________ These 2-Line ...Continue Reading
  • This mailing list is a public mailing list - anyone may join or leave, at any time.
  • This mailing list is announce-only.

International Space Station (ISS) / Hubble Space Telescope (HST) / Chandra X-Ray Observatory Orbital Data via EMAIL

Privacy Policy:

Private list